Location: Unspecified
(50.1700°N, 6.8600°E)
Time: 21:36:23
(UTC+00:00)

SKYMED 2 - Pass Details

Date: 24 January 2019
Orbit: 621 x 623 km, 97.9° (Epoch: 22 February)

Event Time Altitude Azimuth Distance (km) Brightness Sun altitude
Rises 04:53:45 0° 175° (S) 2,894 7.1 -22.7°
Reaches altitude 10° 04:55:57 10° 179° (S) 1,992 6.2 -22.4°
Enters shadow 04:59:43 54° 228° (SW) 763 3.7 -21.8°
